SCP
0 0 0 0 0 0 0 0 0 0 0 0 0 0 0 0 0 0 0 0 0 0 0 0 0 0 0 0 0 0 0 0 0 0 0 0 0 0 0 0 0 0 0
0 0 0 0 0 0 0 0 0 0 0 0 0 0 0 0 0 0 0 0 0 0 0 0 0 0 0 0 0 0 0 0 0 0 0 0 0 0 0 0 0 0 0
0 0 0 0 0 0 0 0 0 0 0 0 0 0 0 0 0 0 0 0 0 0 0 0 0 0 0 0 0 0 0 0 0 0 0 0 0 0 0 0 0 0 0
0 0 0 0 0 0 0 0 0 0 0 0 0 0 0 0 0 0 0 0 0 0 0 0 0 0 0 0 0 0 0 0 0 0 0 0 0 0 0 0 0 0 0
0 0 0 0 0 0 0 0 0 0 0 0 0 0 0 0 0 0 0 0 0 0 0 0 0 0 0 0 0 0 0 0 0 0 0 0 0 0 0 0 0 0 0
0 0 0 0 0 0 0 0 0 0 0 0 0 0 0 0 0 0 0 0 0 0 0 0 0 0 0 0 0 0 0 0 0 0 0 0 0 0 0 0 0 0 0
0 0 0 0 0 0 0 0 0 0 0 0 0 0 0 0 0 0 0 0 0 0 0 0 0 0 0 0 0 0 0 0 0 0 0 0 0 0 0 0 0 0 0
0 0 0 0 0 0 0 0 0 0 0 0 0 0 0 0 0 0 0 0 0 0 0 0 0 0 0 0 0 0 0 0 0 0 0 0 0 0 0 0 0 0 0
0 0 0 0 0 0 0 0 0 0 0 0 0 0 0 0 0 0 0 0 0 0 0 0 0 0 0 0 0 0 0 0 0 0 0 0 0 0 0 0 0 0 0
0 0 0 0 0 0 0 0 0 0 0 0 0 0 0 0 0 0 0 0 0 0 0 0 0 0 0 0 0 0 0 0 0 0 0 0 0 0 0 0 0 0 0
0 0 0 0 0 0 0 0 0 0 0 0 0 0 0 0 0 0 0 0 0 0 0 0 0 0 0 0 0 0 0 0 0 0 0 0 0 0 0 0 0 0 0
0 0 0 0 0 0 0 0 0 0 0 0 0 0 0 0 0 0 0 0 0 0 0 0 0 0 0 0 0 0 0 0 0 0 0 0 0 0 0 0 0 0 0
0 0 0 0 0 0 0 0 0 0 0 0 0 0 0 0 0 0 0 0 0 0 0 0 0 0 0 0 0 0 0 0 0 0 0 0 0 0 0 0 0 0 0
0 0 0 0 0 0 0 0 0 0 0 0 0 0 0 0 0 0 0 0 0 0 0 0 0 0 0 0 0 0 0 0 0 0 0 0 0 0 0 0 0 0 0
0 0 0 0 0 0 0 0 0 0 0 0 0 0 0 0 0 0 0 0 0 0 0 0 0 0 0 0 0 0 0 0 0 0 0 0 0 0 0 0 0 0 0
0 0 0 0 0 0 0 0 0 0 0 0 0 0 0 0 0 0 0 0 0 0 0 0 0 0 0 0 0 0 0 0 0 0 0 0 0 0 0 0 0 0 0
0 0 0 0 0 0 0 0 0 0 0 0 0 0 0 0 0 0 0 0 0 0 0 0 0 0 0 0 0 0 0 0 0 0 0 0 0 0 0 0 0 0 0
0 0 0 0 0 0 0 0 0 0 0 0 0 0 0 0 0 0 0 0 0 0 0 0 0 0 0 0 0 0 0 0 0 0 0 0 0 0 0 0 0 0 0
0 0 0 0 0 0 0 0 0 0 0 0 0 0 0 0 0 0 0 0 0 0 0 0 0 0 0 0 0 0 0 0 0 0 0 0 0 0 0 0 0 0 0
0 0 0 0 0 0 0 0 0 0 0 0 0 0 0 0 0 0 0 0 0 0 0 0 0 0 0 0 0 0 0 0 0 0 0 0 0 0 0 0 0 0 0
0 0 0 0 0 0 0 0 0 0 0 0 0 0 0 0 0 0 0 0 0 0 0 0 0 0 0 0 0 0 0 0 0 0 0 0 0 0 0 0 0 0 0
0 0 0 0 0 0 0 0 0 0 0 0 0 0 0 0 0 0 0 0 0 0 0 0 0 0 0 0 0 0 0 0 0 0 0 0 0 0 0 0 0 0 0
0 0 0 0 0 0 0 0 0 0 0 0 0 0 0 0 0 0 0 0 0 0 0 0 0 0 0 0 0 0 0 0 0 0 0 0 0 0 0 0 0 -0 -0
0 0 0 0 0 0 0 0 0 0 0 0 0 0 0 0 0 0 0 0 0 0 0 0 0 0 0 0 0 0 0 0 0 0 0 0 0 0 0 0 -0 -0 -0
0 0 0 0 0 0 0 0 0 0 0 0 0 0 0 0 0 0 0 0 0 0 0 0 0 0 0 0 0 0 0 0 0 0 0 0 0 -0 -0 -0 -0 -0 -0
0 0 0 0 0 0 0 0 0 0 0 0 0 0 0 0 0 0 0 0 0 0 0 0 0 0 0 0 0 0 0 0 0 0 0 0 -0 -0 -0 -0 -0 -0 -0
Wind_Speed_500mb
110 111 110 109 107 104 102 97 94 88 82 78 73 69 63 59 54 51 48 46 46 45 46 47 48 47 50 52 53 57 61 63 73 83 75 79 78 82 84 85 85 79 86
118 117 117 115 113 113 112 106 101 98 91 86 80 74 69 64 59 55 52 50 50 50 50 50 51 50 53 55 57 59 62 65 71 96 82 76 71 77 79 81 79 86 76
123 125 125 125 121 121 120 114 110 107 100 92 88 81 75 69 64 60 56 54 54 53 52 53 54 53 57 59 58 60 64 66 71 80 96 82 77 73 81 73 88 82 71
117 126 132 132 133 129 126 121 118 115 106 100 94 85 78 72 67 64 60 58 56 55 53 56 57 58 59 59 58 60 65 69 67 74 87 85 82 82 69 81 85 86 90
99 113 125 134 137 135 130 127 123 121 112 103 98 89 82 76 72 69 64 60 58 56 55 55 57 60 63 64 62 65 65 69 66 71 78 80 78 84 76 84 87 86 109
81 98 106 115 123 128 134 133 127 123 115 106 101 94 86 81 75 70 64 61 58 56 56 55 56 60 62 63 62 63 60 58 64 71 78 78 80 78 83 75 88 97 94
72 78 91 102 112 119 124 127 131 129 120 111 104 95 88 83 75 68 64 62 59 57 56 56 56 56 58 57 58 57 51 52 55 65 75 74 78 72 83 90 85 92 104
66 73 82 89 98 103 110 118 122 128 128 115 104 93 86 82 74 69 64 61 58 56 57 55 55 55 54 56 57 57 58 56 57 61 65 70 73 84 86 93 99 106 111
69 73 74 78 85 92 102 109 111 113 118 115 101 91 83 78 72 67 61 59 57 55 53 51 52 52 52 53 50 55 55 57 54 55 61 70 69 71 73 76 84 80 87
70 71 72 65 72 82 92 101 105 104 106 108 97 86 80 74 70 65 61 56 54 52 48 48 49 51 48 37 40 46 59 70 74 70 68 71 69 68 66 60 64 68 75
78 71 73 69 68 68 81 91 98 94 97 97 92 85 78 72 67 63 58 52 49 46 46 44 45 46 44 31 34 51 60 54 59 65 68 67 65 64 63 63 65 69 80
72 72 70 69 64 63 71 87 90 94 94 95 90 80 73 69 65 57 52 50 46 44 45 43 43 40 32 33 41 47 44 45 56 59 61 64 65 63 63 65 68 71 74
80 78 70 65 60 59 66 82 86 89 90 97 88 79 73 67 58 52 48 43 43 42 40 40 38 37 42 44 41 42 46 49 52 56 60 62 62 63 67 70 74 79 83
86 74 64 59 59 58 65 76 80 89 98 96 86 78 70 60 51 44 43 40 37 36 36 34 36 38 38 39 40 40 42 45 48 53 58 62 66 65 67 70 79 84 89
77 67 63 59 60 61 71 77 78 86 92 87 81 71 61 50 43 42 39 35 33 34 33 33 34 35 34 34 37 39 42 43 45 49 57 64 66 65 69 73 79 84 84
71 68 65 63 61 63 72 73 82 83 84 71 59 52 48 39 40 38 34 33 33 28 30 30 31 31 32 35 38 40 42 44 46 52 58 61 68 69 72 77 78 81 80
75 73 67 64 65 69 77 85 88 72 64 60 56 51 39 36 37 32 29 29 22 23 24 28 28 29 33 36 39 42 46 47 50 54 59 63 66 66 71 76 82 82 84
75 74 72 66 71 77 89 90 87 85 78 60 50 44 40 36 29 24 22 20 20 22 24 25 27 31 35 37 40 44 47 50 52 56 60 62 62 67 72 78 84 86 86
64 71 69 64 73 87 95 87 75 70 62 58 48 43 37 28 23 18 17 19 20 21 23 25 29 33 37 40 42 46 48 52 54 60 62 65 64 70 74 80 88 87 87
65 66 66 71 86 94 88 81 69 60 53 44 41 33 27 21 17 16 16 16 18 20 24 29 32 35 38 41 44 48 51 53 58 63 64 66 66 71 77 85 88 90 94
66 65 73 77 86 88 83 72 64 54 46 43 35 29 23 17 15 14 15 17 18 21 26 30 33 36 39 42 46 50 53 56 60 63 66 66 70 74 79 86 88 91 95
68 67 71 79 85 84 77 67 55 49 43 38 33 26 19 15 12 13 14 15 18 22 27 31 34 36 39 43 47 51 55 59 61 63 67 68 72 75 82 87 90 92 94
64 72 79 88 87 80 71 60 53 47 41 33 26 21 17 13 10 10 11 15 21 25 29 33 36 38 40 43 46 50 57 60 60 62 67 73 74 78 83 89 90 92 95
66 80 91 89 83 76 66 58 51 43 36 29 23 17 12 8 6 7 13 19 23 27 31 35 37 40 42 43 47 49 53 55 57 61 66 71 75 78 84 87 89 96 99
80 90 91 87 80 69 62 55 48 40 32 25 19 13 8 3 6 12 18 21 26 29 32 35 37 39 43 46 48 49 50 50 54 58 60 65 74 79 84 90 98 101 103
86 91 89 80 71 66 58 51 44 36 29 23 16 9 2 4 10 15 20 25 28 32 34 35 37 41 45 46 47 49 49 53 54 50 57 70 80 82 84 92 100 103 99
Wind_Direction_500mb
241 241 241 240 239 239 239 239 239 239 239 239 240 242 242 244 246 249 255 261 266 271 271 274 281 282 288 291 293 294 294 293 287 294 294 299 299 303 304 304 304 304 300
247 244 243 243 242 241 241 240 240 240 239 240 240 241 241 242 245 248 253 258 262 267 272 272 278 281 287 291 294 293 292 293 292 295 298 297 298 303 300 302 301 300 300
250 248 247 245 243 243 243 242 241 240 239 239 239 239 240 241 243 247 251 255 258 265 268 271 276 279 284 288 288 288 290 291 291 291 297 299 300 301 304 300 303 302 301
256 252 249 248 249 246 245 243 243 242 239 239 240 239 240 241 243 246 249 253 257 262 266 270 275 278 283 284 285 288 290 291 289 289 293 298 302 307 302 304 305 304 303
266 256 254 255 253 250 246 245 243 242 241 239 240 239 238 239 241 244 249 252 255 261 266 269 274 279 282 284 285 288 290 293 293 295 296 301 303 305 306 307 303 304 302
270 264 263 259 253 249 249 246 243 242 241 238 237 237 236 237 240 244 247 249 254 259 263 267 272 278 282 285 290 291 290 293 294 295 296 297 299 301 304 303 305 305 302
289 278 268 260 255 251 250 247 244 241 240 237 235 234 235 237 239 240 243 247 252 258 261 266 271 276 280 284 287 288 285 288 289 292 292 294 296 299 301 304 302 302 299
293 294 281 266 258 253 246 243 241 243 239 235 232 232 232 236 236 237 240 245 251 255 260 266 271 275 279 282 287 291 291 292 292 286 286 289 293 299 298 298 298 297 298
301 296 294 279 266 256 246 243 239 235 237 234 228 228 228 231 232 235 240 245 250 255 261 267 272 277 281 283 288 294 298 295 287 289 290 294 295 298 299 299 299 300 300
310 306 302 290 272 263 255 245 238 232 234 234 222 220 224 226 229 233 238 243 249 257 262 268 276 281 287 287 294 294 288 290 297 302 299 307 309 309 311 312 311 301 299
308 308 305 295 279 268 257 247 237 226 227 230 215 214 216 220 226 232 239 244 250 256 264 271 278 283 287 287 286 283 290 301 298 302 309 311 314 318 319 318 316 312 308
306 308 306 299 283 268 254 241 232 229 228 217 205 204 208 214 222 229 238 245 250 258 266 273 279 285 282 287 291 298 297 299 306 307 310 315 319 319 317 317 316 315 314
303 303 296 290 283 265 250 237 228 224 222 203 199 201 204 209 216 227 240 244 253 262 270 275 282 288 292 298 301 301 304 309 310 311 313 314 318 317 315 319 322 324 320
298 295 293 287 277 265 242 237 231 223 206 198 197 200 202 206 214 228 235 245 256 266 273 283 291 294 299 300 304 305 308 309 310 311 314 318 319 319 317 323 324 326 323
296 283 288 284 273 258 239 227 221 214 204 200 201 201 202 209 221 226 235 245 257 267 277 287 293 297 299 301 305 306 308 311 313 315 316 318 319 318 319 324 324 325 322
285 270 274 274 258 242 226 210 203 197 198 197 196 197 203 208 217 226 236 245 258 265 280 288 292 293 299 305 305 305 307 312 318 319 317 318 322 319 319 323 325 326 319
284 263 260 261 242 222 208 195 179 177 182 183 191 198 193 210 218 225 234 250 260 271 276 284 289 296 302 302 304 306 310 313 317 319 320 320 320 319 321 323 327 325 319
275 265 259 252 226 205 193 187 181 173 170 172 183 187 197 208 214 224 240 255 268 280 284 287 295 300 301 302 304 307 309 312 315 318 319 319 318 320 322 324 326 322 319
267 253 246 226 211 194 188 184 180 176 174 174 174 182 192 198 214 231 246 262 276 283 290 297 301 300 301 304 307 308 309 312 315 319 321 322 321 321 320 323 325 324 321
252 244 226 209 199 190 186 183 179 172 167 169 174 179 189 202 221 241 256 272 279 288 297 302 302 303 305 307 308 309 311 313 316 320 319 319 320 320 321 323 323 320 320
237 220 215 203 192 186 185 183 176 169 166 172 176 179 187 203 225 246 264 276 288 297 301 301 303 304 308 309 309 310 311 314 317 318 318 318 320 319 321 321 320 320 320
227 214 206 195 184 184 183 176 165 164 171 173 171 175 188 200 222 246 264 283 297 303 304 306 306 309 311 310 310 310 311 314 318 318 317 318 317 317 319 320 319 320 320
214 203 191 183 182 179 171 163 164 168 166 165 168 176 184 201 222 252 281 302 309 309 310 310 312 313 312 310 309 311 312 316 317 316 317 316 315 317 318 318 320 320 321
208 194 185 177 172 166 162 162 164 160 159 161 165 171 184 206 240 287 303 305 306 310 310 312 314 313 312 312 312 314 314 316 315 315 315 313 313 316 319 320 320 320 317
191 182 173 167 163 159 160 159 156 154 152 153 155 164 177 222 304 305 307 308 309 310 313 313 314 314 314 316 318 317 316 314 312 312 312 313 316 321 322 320 317 310 307
176 168 162 158 154 157 156 152 148 145 144 144 146 145 127 320 314 313 316 315 315 316 314 316 318 317 319 320 321 319 317 317 315 317 319 320 320 320 318 317 318 313 305
Wind_Speed_850mb
110 111 110 109 107 104 102 97 94 88 82 78 73 69 63 59 54 51 48 46 46 45 46 47 48 47 50 52 53 57 61 63 73 83 75 79 78 82 84 85 85 79 86
118 117 117 115 113 113 112 106 101 98 91 86 80 74 69 64 59 55 52 50 50 50 50 50 51 50 53 55 57 59 62 65 71 96 82 76 71 77 79 81 79 86 76
123 125 125 125 121 121 120 114 110 107 100 92 88 81 75 69 64 60 56 54 54 53 52 53 54 53 57 59 58 60 64 66 71 80 96 82 77 73 81 73 88 82 71
117 126 132 132 133 129 126 121 118 115 106 100 94 85 78 72 67 64 60 58 56 55 53 56 57 58 59 59 58 60 65 69 67 74 87 85 82 82 69 81 85 86 90
99 113 125 134 137 135 130 127 123 121 112 103 98 89 82 76 72 69 64 60 58 56 55 55 57 60 63 64 62 65 65 69 66 71 78 80 78 84 76 84 87 86 109
81 98 106 115 123 128 134 133 127 123 115 106 101 94 86 81 75 70 64 61 58 56 56 55 56 60 62 63 62 63 60 58 64 71 78 78 80 78 83 75 88 97 94
72 78 91 102 112 119 124 127 131 129 120 111 104 95 88 83 75 68 64 62 59 57 56 56 56 56 58 57 58 57 51 52 55 65 75 74 78 72 83 90 85 92 104
66 73 82 89 98 103 110 118 122 128 128 115 104 93 86 82 74 69 64 61 58 56 57 55 55 55 54 56 57 57 58 56 57 61 65 70 73 84 86 93 99 106 111
69 73 74 78 85 92 102 109 111 113 118 115 101 91 83 78 72 67 61 59 57 55 53 51 52 52 52 53 50 55 55 57 54 55 61 70 69 71 73 76 84 80 87
70 71 72 65 72 82 92 101 105 104 106 108 97 86 80 74 70 65 61 56 54 52 48 48 49 51 48 37 40 46 59 70 74 70 68 71 69 68 66 60 64 68 75
78 71 73 69 68 68 81 91 98 94 97 97 92 85 78 72 67 63 58 52 49 46 46 44 45 46 44 31 34 51 60 54 59 65 68 67 65 64 63 63 65 69 80
72 72 70 69 64 63 71 87 90 94 94 95 90 80 73 69 65 57 52 50 46 44 45 43 43 40 32 33 41 47 44 45 56 59 61 64 65 63 63 65 68 71 74
80 78 70 65 60 59 66 82 86 89 90 97 88 79 73 67 58 52 48 43 43 42 40 40 38 37 42 44 41 42 46 49 52 56 60 62 62 63 67 70 74 79 83
86 74 64 59 59 58 65 76 80 89 98 96 86 78 70 60 51 44 43 40 37 36 36 34 36 38 38 39 40 40 42 45 48 53 58 62 66 65 67 70 79 84 89
77 67 63 59 60 61 71 77 78 86 92 87 81 71 61 50 43 42 39 35 33 34 33 33 34 35 34 34 37 39 42 43 45 49 57 64 66 65 69 73 79 84 84
71 68 65 63 61 63 72 73 82 83 84 71 59 52 48 39 40 38 34 33 33 28 30 30 31 31 32 35 38 40 42 44 46 52 58 61 68 69 72 77 78 81 80
75 73 67 64 65 69 77 85 88 72 64 60 56 51 39 36 37 32 29 29 22 23 24 28 28 29 33 36 39 42 46 47 50 54 59 63 66 66 71 76 82 82 84
75 74 72 66 71 77 89 90 87 85 78 60 50 44 40 36 29 24 22 20 20 22 24 25 27 31 35 37 40 44 47 50 52 56 60 62 62 67 72 78 84 86 86
64 71 69 64 73 87 95 87 75 70 62 58 48 43 37 28 23 18 17 19 20 21 23 25 29 33 37 40 42 46 48 52 54 60 62 65 64 70 74 80 88 87 87
65 66 66 71 86 94 88 81 69 60 53 44 41 33 27 21 17 16 16 16 18 20 24 29 32 35 38 41 44 48 51 53 58 63 64 66 66 71 77 85 88 90 94
66 65 73 77 86 88 83 72 64 54 46 43 35 29 23 17 15 14 15 17 18 21 26 30 33 36 39 42 46 50 53 56 60 63 66 66 70 74 79 86 88 91 95
68 67 71 79 85 84 77 67 55 49 43 38 33 26 19 15 12 13 14 15 18 22 27 31 34 36 39 43 47 51 55 59 61 63 67 68 72 75 82 87 90 92 94
64 72 79 88 87 80 71 60 53 47 41 33 26 21 17 13 10 10 11 15 21 25 29 33 36 38 40 43 46 50 57 60 60 62 67 73 74 78 83 89 90 92 95
66 80 91 89 83 76 66 58 51 43 36 29 23 17 12 8 6 7 13 19 23 27 31 35 37 40 42 43 47 49 53 55 57 61 66 71 75 78 84 87 89 96 99
80 90 91 87 80 69 62 55 48 40 32 25 19 13 8 3 6 12 18 21 26 29 32 35 37 39 43 46 48 49 50 50 54 58 60 65 74 79 84 90 98 101 103
86 91 89 80 71 66 58 51 44 36 29 23 16 9 2 4 10 15 20 25 28 32 34 35 37 41 45 46 47 49 49 53 54 50 57 70 80 82 84 92 100 103 99
Wind_Direction_850mb
241 241 241 240 239 239 239 239 239 239 239 239 240 242 242 244 246 249 255 261 266 271 271 274 281 282 288 291 293 294 294 293 287 294 294 299 299 303 304 304 304 304 300
247 244 243 243 242 241 241 240 240 240 239 240 240 241 241 242 245 248 253 258 262 267 272 272 278 281 287 291 294 293 292 293 292 295 298 297 298 303 300 302 301 300 300
250 248 247 245 243 243 243 242 241 240 239 239 239 239 240 241 243 247 251 255 258 265 268 271 276 279 284 288 288 288 290 291 291 291 297 299 300 301 304 300 303 302 301
256 252 249 248 249 246 245 243 243 242 239 239 240 239 240 241 243 246 249 253 257 262 266 270 275 278 283 284 285 288 290 291 289 289 293 298 302 307 302 304 305 304 303
266 256 254 255 253 250 246 245 243 242 241 239 240 239 238 239 241 244 249 252 255 261 266 269 274 279 282 284 285 288 290 293 293 295 296 301 303 305 306 307 303 304 302
270 264 263 259 253 249 249 246 243 242 241 238 237 237 236 237 240 244 247 249 254 259 263 267 272 278 282 285 290 291 290 293 294 295 296 297 299 301 304 303 305 305 302
289 278 268 260 255 251 250 247 244 241 240 237 235 234 235 237 239 240 243 247 252 258 261 266 271 276 280 284 287 288 285 288 289 292 292 294 296 299 301 304 302 302 299
293 294 281 266 258 253 246 243 241 243 239 235 232 232 232 236 236 237 240 245 251 255 260 266 271 275 279 282 287 291 291 292 292 286 286 289 293 299 298 298 298 297 298
301 296 294 279 266 256 246 243 239 235 237 234 228 228 228 231 232 235 240 245 250 255 261 267 272 277 281 283 288 294 298 295 287 289 290 294 295 298 299 299 299 300 300
310 306 302 290 272 263 255 245 238 232 234 234 222 220 224 226 229 233 238 243 249 257 262 268 276 281 287 287 294 294 288 290 297 302 299 307 309 309 311 312 311 301 299
308 308 305 295 279 268 257 247 237 226 227 230 215 214 216 220 226 232 239 244 250 256 264 271 278 283 287 287 286 283 290 301 298 302 309 311 314 318 319 318 316 312 308
306 308 306 299 283 268 254 241 232 229 228 217 205 204 208 214 222 229 238 245 250 258 266 273 279 285 282 287 291 298 297 299 306 307 310 315 319 319 317 317 316 315 314
303 303 296 290 283 265 250 237 228 224 222 203 199 201 204 209 216 227 240 244 253 262 270 275 282 288 292 298 301 301 304 309 310 311 313 314 318 317 315 319 322 324 320
298 295 293 287 277 265 242 237 231 223 206 198 197 200 202 206 214 228 235 245 256 266 273 283 291 294 299 300 304 305 308 309 310 311 314 318 319 319 317 323 324 326 323
296 283 288 284 273 258 239 227 221 214 204 200 201 201 202 209 221 226 235 245 257 267 277 287 293 297 299 301 305 306 308 311 313 315 316 318 319 318 319 324 324 325 322
285 270 274 274 258 242 226 210 203 197 198 197 196 197 203 208 217 226 236 245 258 265 280 288 292 293 299 305 305 305 307 312 318 319 317 318 322 319 319 323 325 326 319
284 263 260 261 242 222 208 195 179 177 182 183 191 198 193 210 218 225 234 250 260 271 276 284 289 296 302 302 304 306 310 313 317 319 320 320 320 319 321 323 327 325 319
275 265 259 252 226 205 193 187 181 173 170 172 183 187 197 208 214 224 240 255 268 280 284 287 295 300 301 302 304 307 309 312 315 318 319 319 318 320 322 324 326 322 319
267 253 246 226 211 194 188 184 180 176 174 174 174 182 192 198 214 231 246 262 276 283 290 297 301 300 301 304 307 308 309 312 315 319 321 322 321 321 320 323 325 324 321
252 244 226 209 199 190 186 183 179 172 167 169 174 179 189 202 221 241 256 272 279 288 297 302 302 303 305 307 308 309 311 313 316 320 319 319 320 320 321 323 323 320 320
237 220 215 203 192 186 185 183 176 169 166 172 176 179 187 203 225 246 264 276 288 297 301 301 303 304 308 309 309 310 311 314 317 318 318 318 320 319 321 321 320 320 320
227 214 206 195 184 184 183 176 165 164 171 173 171 175 188 200 222 246 264 283 297 303 304 306 306 309 311 310 310 310 311 314 318 318 317 318 317 317 319 320 319 320 320
214 203 191 183 182 179 171 163 164 168 166 165 168 176 184 201 222 252 281 302 309 309 310 310 312 313 312 310 309 311 312 316 317 316 317 316 315 317 318 318 320 320 321
208 194 185 177 172 166 162 162 164 160 159 161 165 171 184 206 240 287 303 305 306 310 310 312 314 313 312 312 312 314 314 316 315 315 315 313 313 316 319 320 320 320 317
191 182 173 167 163 159 160 159 156 154 152 153 155 164 177 222 304 305 307 308 309 310 313 313 314 314 314 316 318 317 316 314 312 312 312 313 316 321 322 320 317 310 307
176 168 162 158 154 157 156 152 148 145 144 144 146 145 127 320 314 313 316 315 315 316 314 316 318 317 319 320 321 319 317 317 315 317 319 320 320 320 318 317 318 313 305